Location: Newark
(42.8481°N, 0.4872°E)
Time: 22:56:00
(UTC+00:00)

Vanguard 2 - Pass Details

Date: 01 November 2020
Orbit: 554 x 2937 km, 32.9° (Epoch: 29 November)

Event Time Altitude Azimuth Distance (km) Brightness Sun altitude
Rises 21:16:22 0° 264° (W) 5,482 12.4 -48.1°
Reaches altitude 10° 21:19:37 10° 261° (W) 4,749 11.9 -48.6°
Enters shadow 21:29:23 48° 229° (SW) 3,229 10.5 -50.1°
Maximum altitude 21:33:39 57° 188° (S) 3,136 - -50.8°
Drops below altitude 10° 21:50:53 10° 116° (ESE) 5,704 - -53.3°
Sets 21:55:14 0° 113° (ESE) 6,606 - -53.9°
